This is the latest recevied weather packets stored in our database for station/object WZ8H. If no packets are shown the sender has not sent any weather packets the latest 10 day(s).
| Time | Temp. | Humidity | Pressure | Rain* | Wind** | Luminosity | Snow |
|---|---|---|---|---|---|---|---|
| 1777678499 | 8.33° C | 75% | 1013.9 hPa | 0 mm | - | 28 W/m² | - |
| 1777678197 | 8.33° C | 74% | 1013.8 hPa | 0 mm | - | 32 W/m² | - |
| 1777677875 | 8.33° C | 74% | 1013.9 hPa | 0 mm | - | 37 W/m² | - |
| 1777677553 | 8.33° C | 73% | 1013.8 hPa | 0 mm | - | 49 W/m² | - |
| 1777677252 | 8.33° C | 74% | 1013.8 hPa | 0 mm | - | 63 W/m² | - |
| 1777676927 | 8.33° C | 74% | 1013.7 hPa | 0 mm | - | 72 W/m² | - |
| 1777676630 | 8.89° C | 74% | 1013.8 hPa | 0 mm | - | 69 W/m² | - |
| 1777676326 | 8.89° C | 74% | 1013.8 hPa | 0 mm | - | 70 W/m² | - |
| 1777676026 | 8.89° C | 74% | 1013.8 hPa | 0 mm | - | 90 W/m² | - |
| 1777675706 | 8.89° C | 73% | 1013.9 hPa | 0 mm | - | 111 W/m² | - |
| 1777675405 | 8.89° C | 74% | 1013.9 hPa | 0 mm | - | 139 W/m² | - |
| 1777675088 | 8.89° C | 75% | 1013.9 hPa | 0 mm | - | 155 W/m² | - |
| 1777674772 | 8.89° C | 76% | 1013.9 hPa | 0 mm | - | 144 W/m² | - |
| 1777674469 | 8.89° C | 76% | 1014 hPa | 0 mm | - | 137 W/m² | - |
| 1777674166 | 8.89° C | 74% | 1013.9 hPa | 0 mm | - | 146 W/m² | - |
| 1777673866 | 8.89° C | 77% | 1013.9 hPa | 0 mm | - | 190 W/m² | - |
| 1777673555 | 8.89° C | 76% | 1013.9 hPa | 0 mm | - | 190 W/m² | - |
| 1777673252 | 9.44° C | 76% | 1013.9 hPa | 0 mm | - | 176 W/m² | - |
| 1777672956 | 9.44° C | 76% | 1013.9 hPa | 0 mm | - | 158 W/m² | - |
| 1777672634 | 9.44° C | 77% | 1013.8 hPa | 0 mm | - | 141 W/m² | - |
| 1777672307 | 9.44° C | 77% | 1013.8 hPa | 0 mm | - | 234 W/m² | - |
| 1777672003 | 9.44° C | 78% | 1013.8 hPa | 0 mm | - | 244 W/m² | - |
| 1777671686 | 8.89° C | 77% | 1013.8 hPa | 0 mm | - | 295 W/m² | - |
| 1777671385 | 8.89° C | 77% | 1013.7 hPa | 0 mm | - | 253 W/m² | - |
| 1777671062 | 8.89° C | 79% | 1013.7 hPa | 0 mm | - | 236 W/m² | - |
* Rain latest hour (hover to see other rain measurements)
** Current wind speed in m/s (hover to see current wind gust speed)